This is the latest recevied weather packets stored in our database for station/object KE8AFF-13. If no packets are shown the sender has not sent any weather packets the latest 1 day(s).
| Time | Temp. | Humidity | Pressure | Rain* | Wind** | Luminosity | Snow |
|---|---|---|---|---|---|---|---|
| 1777968697 | 17.78° C | 71% | 1004.7 hPa | 0 mm | 3.13 m/s, 212° | 0 W/m² | - |
| 1777968387 | 17.78° C | 71% | 1004.6 hPa | 0 mm | 1.79 m/s, 266° | 0 W/m² | - |
| 1777968083 | 17.78° C | 71% | 1004.3 hPa | 0 mm | 3.13 m/s, 194° | 0 W/m² | - |
| 1777967780 | 17.78° C | 71% | 1004.3 hPa | 0 mm | 1.34 m/s, 221° | 0 W/m² | - |
| 1777967476 | 17.78° C | 72% | 1004.3 hPa | 0 mm | 3.13 m/s, 217° | 0 W/m² | - |
| 1777967173 | 17.78° C | 71% | 1004.3 hPa | 0 mm | 2.24 m/s, 213° | 0 W/m² | - |
| 1777966870 | 17.78° C | 71% | 1004.4 hPa | 0 mm | 3.13 m/s, 222° | 0 W/m² | - |
| 1777966568 | 18.33° C | 69% | 1004.4 hPa | 0 mm | 4.92 m/s, 266° | 0 W/m² | - |
| 1777966266 | 18.33° C | 70% | 1004.3 hPa | 0 mm | 3.13 m/s, 237° | 0 W/m² | - |
| 1777965961 | 18.33° C | 69% | 1004.3 hPa | 0 mm | 6.26 m/s, 222° | 0 W/m² | - |
| 1777965658 | 18.33° C | 69% | 1004.2 hPa | 0 mm | 3.13 m/s, 224° | 0 W/m² | - |
| 1777965353 | 18.33° C | 70% | 1004 hPa | 0 mm | 2.68 m/s, 300° | 0 W/m² | - |
| 1777965052 | 18.33° C | 69% | 1003.8 hPa | 0 mm | 2.24 m/s, 178° | 0 W/m² | - |
| 1777964749 | 18.89° C | 67% | 1003.7 hPa | 0 mm | 4.47 m/s, 221° | 0 W/m² | - |
| 1777964445 | 18.89° C | 67% | 1003.7 hPa | 0 mm | 4.47 m/s, 219° | 0 W/m² | - |
| 1777964141 | 18.89° C | 67% | 1003.8 hPa | 0 mm | 4.02 m/s, 249° | 0 W/m² | - |
| 1777963838 | 18.89° C | 67% | 1003.6 hPa | 0 mm | 3.58 m/s, 230° | 0 W/m² | - |
| 1777963534 | 18.89° C | 66% | 1003.6 hPa | 0 mm | 2.24 m/s, 196° | 0 W/m² | - |
| 1777963233 | 18.89° C | 66% | 1003.5 hPa | 0 mm | 3.13 m/s, 203° | 0 W/m² | - |
| 1777962930 | 18.89° C | 65% | 1003.6 hPa | 0 mm | 5.36 m/s, 215° | 0 W/m² | - |
| 1777962626 | 18.89° C | 65% | 1003.7 hPa | 0 mm | 4.02 m/s, 222° | 0 W/m² | - |
| 1777962323 | 18.89° C | 65% | 1003.2 hPa | 0 mm | 5.81 m/s, 169° | 0 W/m² | - |
| 1777962020 | 18.89° C | 65% | 1003.6 hPa | 0 mm | 3.58 m/s, 211° | 0 W/m² | - |
| 1777961717 | 18.89° C | 65% | 1003.7 hPa | 0 mm | 4.47 m/s, 211° | 0 W/m² | - |
| 1777961415 | 18.89° C | 65% | 1003.6 hPa | 0 mm | 4.02 m/s, 212° | 0 W/m² | - |
* Rain latest hour (hover to see other rain measurements)
** Current wind speed in m/s (hover to see current wind gust speed)